Tracking 18843 objects as of 20-November-2017
HD Live streaming from Space Station
objects crossing your sky now

SCOUT X-4 DEB

Track SCOUT X-4 DEB now!
10-day predictions


NORAD ID: 2088
Int'l Code: 1965-093D
Perigee: 656.8 km
Apogee: 782.5 km
Inclination: 59.7 °
Period: 99.0 minutes
Semi major axis: 7090 km
RCS: 0.0298 m2 (small)
Launch date: November 19, 1965
Source: United States (US)
Launch site: WALLOPS ISLAND (WLPIS)

Note: This is SATELLITE DEBRIS
aabbcc
Your satellite tracking list
Your tracking list is empty




NASA's NSSDC Master Catalog

Two Line Element Set (TLE):
1  2088U 65093D   17323.24603193 +.00000178 +00000-0 +77216-4 0  9998
2  2088 059.7194 290.3898 0088630 019.2160 341.2191 14.54034727697750
Source of the keplerian elements: AFSPC